Location: Canyam�s
(41.5996°N, 2.4450°E)
Time: 20:26:53
(UTC+00:00)

STARLINK-1261 - Visible Passes

Search period start: 25 September 2020 00:00
Search period end: 05 October 2020 00:00
Orbit: 549 x 550 km, 53.0° (Epoch: 25 September)

Date Brightness Start Highest point End Pass type
(mag) Time Alt. Az. Time Alt. Az. Time Alt. Az.
25 Sep 6.0 02:46:52 22° ENE 02:46:52 22° ENE 02:48:32 10° ENE visible
25 Sep 4.4 04:22:32 25° WNW 04:24:15 37° NNW 04:28:07 10° NE visible
26 Sep 6.2 02:41:46 20° ENE 02:41:46 20° ENE 02:43:08 10° ENE visible
26 Sep 4.8 04:17:26 25° WNW 04:18:50 31° NNW 04:22:34 10° NE visible
27 Sep 6.4 02:36:38 17° ENE 02:36:38 17° ENE 02:37:41 10° NE visible
27 Sep 5.0 04:12:17 23° NW 04:13:27 26° NNW 04:17:00 10° NE visible
28 Sep 6.6 02:31:27 15° NE 02:31:27 15° NE 02:32:11 10° NE visible
28 Sep 5.2 04:07:06 21° NW 04:08:06 23° NNW 04:11:27 10° NE visible
29 Sep 6.8 02:26:14 13° NE 02:26:14 13° NE 02:26:40 10° NE visible
29 Sep 5.4 04:01:53 19° NNW 04:02:46 21° NNW 04:05:57 10° NE visible
30 Sep 6.9 02:21:01 11° NE 02:21:01 11° NE 02:21:08 10° NE visible
30 Sep 5.5 03:56:40 18° NNW 03:57:28 19° NNW 04:00:28 10° NE visible
01 Oct 5.7 03:51:27 17° NNW 03:52:10 18° N 03:55:02 10° NE visible
02 Oct 5.8 03:46:14 16° NNW 03:46:53 17° N 03:49:39 10° NE visible
03 Oct 5.8 03:41:01 16° NNW 03:41:36 17° N 03:44:20 10° NE visible
03 Oct 5.4 05:18:49 10° NW 05:22:19 25° NNE 05:25:48 10° ENE visible
04 Oct 5.9 03:35:51 16° N 03:36:21 17° N 03:39:06 10° NE visible
04 Oct 5.2 05:13:17 10° NW 05:16:58 30° NNE 05:20:39 10° E visible
